Regional Weather Roundup
Issued by NWS

Home | Current Version | Previous Version | Graphics & Text | Print | Product List | Glossary On
Versions: 1 2 3 4 5 6 7 8 9 10 11 12 13 14 15 16 17 18 19 20 21 22 23 24 25 26 27 28 29 30 31 32 33 34 35 36 37 38 39 40 41 42 43 44 45 46 47 48 49 50
000
ASUS45 KSLC 251910
RWRUT

UTAH REGIONAL WEATHER ROUNDUP
NATIONAL WEATHER SERVICE SALT LAKE CITY UT
1200 PM MST SAT FEB 25 2017

UTZ001>011-023>025-252000-

NORTHERN UTAH

CITY           SKY/WX    TMP DP  RH WIND       PRES   REMARKS
BRIGHAM CITY     N/A     31  20  63 S13       30.08F WCI  21
HILL AFB       PTSUNNY   27  18  69 S12       30.06F WCI  16
LOGAN          LGT SNOW  25  20  81 N3        30.07F
OGDEN          CLOUDY    28  19  69 S8        30.06F WCI  20
SALT LAKE CITY CLOUDY    27  20  75 SE8       30.10S WCI  19
TOOELE VALLEY  PTSUNNY   32  19  59 S5        30.09F WCI  27
WENDOVER       SUNNY     34  16  47 E6        30.09S WCI  29
HEBER CITY     LGT SNOW  16   9  73 CALM      30.03F VSB 1
WEST JORDAN    CLOUDY    29  26  88 S3        30.09F

$$

UTZ011>015-024>027-252000-

CENTRAL/NORTHEAST UTAH

CITY           SKY/WX    TMP DP  RH WIND       PRES   REMARKS
PROVO AIRPORT  CLOUDY    31  14  49 S5        30.11F WCI  26
MOAB/CANYONLAN SUNNY     38  11  32 VRB5      30.05F WCI  34
DELTA          CLOUDY    28  18  64 CALM      30.08S
PRICE          CLOUDY    25   5  42 CALM      30.02F
RICHFIELD      CLOUDY    30  14  51 CALM      30.07F
ROOSEVELT      MOSUNNY   25  18  74 E6        30.06F WCI  18
VERNAL         CLOUDY    21  14  74 E3        30.04F

$$

UTZ013>016-019>022-027-252000-

SOUTHERN UTAH

CITY           SKY/WX    TMP DP  RH WIND       PRES   REMARKS
BRYCE CANYON   CLOUDY    25   4  40 SE5       29.99S WCI  19
CEDAR CITY     CLOUDY    36  11  35 VRB3      30.01F
MILFORD        PTSUNNY   33  16  49 S12       30.04F WCI  24
ST GEORGE      MOCLDY    42  18  37 CALM      30.10F
HANKSVILLE     MOSUNNY   36   3  25 S3        30.08F
KANAB          SUNNY     41  10  28 S13       30.09F
BLANDING       MOSUNNY   34   5  29 S7        30.11F WCI  28

$$

REGIONAL REPORTS     COLORADO/ARIZONA

CITY           SKY/WX    TMP DP  RH WIND       PRES   REMARKS
CRAIG, CO      CLOUDY    23   6  48 W22       29.98F WCI   8
GRAND JUNCTION MOSUNNY   32  11  41 NW6       30.06F WCI  26
RIFLE, CO      CLOUDY    24  15  68 CALM      30.04F
MONTROSE, CO   CLOUDY    31   5  33 N8        30.05F WCI  23
CORTEZ, CO     PTSUNNY   35   4  27 S6        30.04F WCI  30
COLORADO CITY    N/A     43  14  31 S7        30.08F
PAGE, AZ       SUNNY     41   4  21 VRB3      30.05F
GRAND CANYON   SUNNY     35  10  35 SW13G22   30.04F WCI  26
KINGMAN, AZ    SUNNY     52  -1  11 SW18      30.07F
FLAGSTAFF, AZ  SUNNY     38   4  24 W13G20    30.03F WCI  30

$$

REGIONAL REPORTS    NEVADA/IDAHO/WYOMING

CITY           SKY/WX    TMP DP  RH WIND       PRES   REMARKS
LAS VEGAS, NV  PTSUNNY   50  15  24 NE7       30.06F
ELY, NY        CLOUDY    26  14  60 NE6       30.02F WCI  19
ELKO, NV       CLOUDY    31  15  52 VRB6      30.07F WCI  25
POCATELLO, ID  MOSUNNY   21  13  71 W10       30.06F WCI  10
BURLEY, ID     MIX PCPN  30  15  53 W9        30.07S WCI  22
FORT BRIDGER,    N/A     19  11  68 W22G30    29.95F WCI   3
EVANSTON, WY   CLOUDY    16   8  71 SW15      29.93F WCI   1
ROCK SPRINGS,  CLOUDY    15   5  64 W17       29.92F WCI  -1

$$



USA.gov is the U.S. government's official web portal to all federal, state and local government web resources and services.